Ephrata, WA
on Tuesday, February 19, 2013

Tuesday
Previous Day Next Day
Daily Summary
 ActualAverageRecord
Temperature
Mean Temperature °F / °C 35°F / 2°C  
Max Temperature 44°F / 7°C 44°F / 7°C 61°F / 16°C (1991)
Min Temperature 27°F / -3°C 26°F / -3°C 7°F / -13°C (1986)
Degree Days
Heating Degree Days 29 30  
Month to date heating degree days 555 607  
Since 1 July heating degree days 3991 4315  
Cooling Degree Days 0 0  
Month to date cooling degree days 0 0  
Year to date cooling degree days 0 0  
Moisture
Dew Point 27°F / -3°C   
Average Humidity 75    
Maximum Humidity 92    
Minimum Humidity 57    
Precipitation
Precipitation T in / T cm 0.03 in / 0.76 cm 0.48 in / 1.22 cm (1981)
Month to date precipitation T 0.49  
Year to date precipitation 0.19 1.40  
Wind
Wind Speed 8 mph / 13 km/h   
Max Wind Speed 16 mph / 26 km/h   
Max Gust Speed 20 mph / 32 km/h   
Visibility 10 miles / 16 kilometers   
Events     

Key: T is trace of precipitation, MM is missing value
Source: NWS Daily Summary
Time(PST)TemperatureDew PointHumidity Pressure Visibility Wind DirectionWind SpeedGust SpeedPrecipitationEvents Conditions
12:53 AM 28.9°F / -1.7°C 26.1°F / -3.3°C 89% 29.79 in / 1008.6 hPa 10.0 miles / 16.1 kilometers North 3.5 mph / 5.6 km/h - N/A   Clear
1:53 AM 30.0°F / -1.1°C 27.0°F / -2.8°C 88% 29.78 in / 1008.4 hPa 10.0 miles / 16.1 kilometers NW 5.8 mph / 9.3 km/h - N/A   Mostly Cloudy
2:53 AM 28.0°F / -2.2°C 25.0°F / -3.9°C 88% 29.78 in / 1008.2 hPa 10.0 miles / 16.1 kilometers North 4.6 mph / 7.4 km/h - N/A   Clear
3:53 AM 28.9°F / -1.7°C 26.1°F / -3.3°C 89% 29.78 in / 1008.3 hPa 10.0 miles / 16.1 kilometers NW 4.6 mph / 7.4 km/h - N/A   Mostly Cloudy
4:53 AM 30.9°F / -0.6°C 27.0°F / -2.8°C 85% 29.77 in / 1008.1 hPa 10.0 miles / 16.1 kilometers NNW 8.1 mph / 13.0 km/h - N/A   Mostly Cloudy
5:53 AM 32.0°F / 0.0°C 27.0°F / -2.8°C 82% 29.77 in / 1007.9 hPa 10.0 miles / 16.1 kilometers North 8.1 mph / 13.0 km/h - N/A   Scattered Clouds
6:53 AM 30.0°F / -1.1°C 26.1°F / -3.3°C 85% 29.78 in / 1008.5 hPa 10.0 miles / 16.1 kilometers North 5.8 mph / 9.3 km/h - N/A   Overcast
7:40 AM 30.2°F / -1.0°C 26.6°F / -3.0°C 86% 29.75 in / 1007.3 hPa 10.0 miles / 16.1 kilometers NNW 6.9 mph / 11.1 km/h - N/A   Overcast
7:53 AM 30.9°F / -0.6°C 27.0°F / -2.8°C 85% 29.78 in / 1008.4 hPa 10.0 miles / 16.1 kilometers NNW 6.9 mph / 11.1 km/h - N/A   Mostly Cloudy
8:04 AM 33.8°F / 1.0°C 28.4°F / -2.0°C 81% 29.75 in / 1007.3 hPa 10.0 miles / 16.1 kilometers NNW 6.9 mph / 11.1 km/h - N/A   Partly Cloudy
10:29 AM 41.0°F / 5.0°C 30.2°F / -1.0°C 65% 29.75 in / 1007.3 hPa 10.0 miles / 16.1 kilometers Variable 6.9 mph / 11.1 km/h - N/A   Mostly Cloudy
10:53 AM 41.0°F / 5.0°C 28.9°F / -1.7°C 62% 29.78 in / 1008.4 hPa 10.0 miles / 16.1 kilometers North 5.8 mph / 9.3 km/h - N/A   Mostly Cloudy
11:53 AM 42.1°F / 5.6°C 30.0°F / -1.1°C 62% 29.79 in / 1008.7 hPa 10.0 miles / 16.1 kilometers NNW 9.2 mph / 14.8 km/h - N/A   Mostly Cloudy
12:32 PM 42.8°F / 6.0°C 30.2°F / -1.0°C 61% 29.76 in / 1007.7 hPa 10.0 miles / 16.1 kilometers NNW 10.4 mph / 16.7 km/h 16.1 mph / 25.9 km/h N/A   Overcast
12:53 PM 42.1°F / 5.6°C 28.9°F / -1.7°C 60% 29.79 in / 1008.8 hPa 10.0 miles / 16.1 kilometers NNW 9.2 mph / 14.8 km/h - N/A   Overcast
1:53 PM 43.0°F / 6.1°C 28.0°F / -2.2°C 56% 29.79 in / 1008.7 hPa 10.0 miles / 16.1 kilometers NNW 9.2 mph / 14.8 km/h - N/A   Mostly Cloudy
2:53 PM 41.0°F / 5.0°C 28.9°F / -1.7°C 62% 29.81 in / 1009.2 hPa 10.0 miles / 16.1 kilometers NNW 10.4 mph / 16.7 km/h - N/A   Mostly Cloudy
4:53 PM 37.9°F / 3.3°C 30.0°F / -1.1°C 73% 29.81 in / 1009.5 hPa 10.0 miles / 16.1 kilometers NNW 9.2 mph / 14.8 km/h - N/A   Partly Cloudy
5:53 PM 37.0°F / 2.8°C 28.9°F / -1.7°C 73% 29.83 in / 1010.2 hPa 10.0 miles / 16.1 kilometers NNW 6.9 mph / 11.1 km/h - N/A   Overcast
6:53 PM 37.9°F / 3.3°C 28.0°F / -2.2°C 68% 29.86 in / 1011.1 hPa 10.0 miles / 16.1 kilometers North 11.5 mph / 18.5 km/h - N/A   Overcast
7:53 PM 39.0°F / 3.9°C 27.0°F / -2.8°C 62% 29.87 in / 1011.4 hPa 10.0 miles / 16.1 kilometers North 8.1 mph / 13.0 km/h - 0.00 in / 0.0 cm   Overcast
8:53 PM 37.9°F / 3.3°C 27.0°F / -2.8°C 65% 29.88 in / 1011.9 hPa 10.0 miles / 16.1 kilometers NNE 4.6 mph / 7.4 km/h - N/A   Overcast
9:53 PM 37.9°F / 3.3°C 25.0°F / -3.9°C 60% 29.90 in / 1012.4 hPa 10.0 miles / 16.1 kilometers NNW 11.5 mph / 18.5 km/h - N/A   Overcast
10:53 PM 36.0°F / 2.2°C 24.1°F / -4.4°C 62% 29.92 in / 1013.0 hPa 10.0 miles / 16.1 kilometers NNW 13.8 mph / 22.2 km/h - N/A   Partly Cloudy
11:53 PM 34.0°F / 1.1°C 23.0°F / -5.0°C 64% 29.94 in / 1013.8 hPa 10.0 miles / 16.1 kilometers NW 11.5 mph / 18.5 km/h - N/A   Clear
Moon Phase
Feb. 19 Feb. 25 Mar. 04 Mar. 11 Mar. 19
Sunrise:06:55 AM (PST) Moon Rise:11:51 AM (PST)2/19
Sunset:05:28 PM (PST) Moon Set:02:44 AM (PST)2/19

Copyright © 2014 The Weather Underground, Inc.